Normandy, United Kingdom
Current Conditions -  °F | °C
As of 9:20 AM on Monday 20 Oct 2014 (Local Time) from EGLF Reporting Station
Scattered Clouds Scattered Clouds  
Wind Chill: 55°   Ceiling: Unl
Heat Index: 55°   Visibility: 6mi
Dew Point: 50°   Wind: 12mph
Humidity: 82%   Direction: 230°SW
Pressure: 30.03"   Gusts: NA
Location:  51.26°N, 0.67°W
Report Text: EGLF 200820Z 23010KT 9999 SCT035 13/10 Q1017
Loading
Personal Weather Stations






























Interactive Weather Map
Tropical Storm Tracking
New forecast layout! Learn more

10-Day Weather Forecast

Advertisements
Track Severe Weather on mobile